User: anonymous   Login
Location: Sandbanks Provincial Park
(47.6073°N, 57.6428°W)
Time: 13:03:18
(UTC-02:-30)
Language:

Cosmos 2034 Rocket - Orbit

View from above orbital plane
View from above orbital plane
View from above satellite
View from above satellite

Ground track
Ground track

The orbit data is extracted from the following two-line orbital elements,

1 20150U 89059B   18145.59364919 -.00000004 +00000-0 -19844-4 0  9990
2 20150 082.9410 200.0722 0029979 048.5356 061.2259 13.75629581447258
Epoch (UTC): 25 May 2018 14:14:51
Eccentricity: 0.0029979
inclination: 82.9410°
perigee height: 957 km
apogee height: 1001 km
right ascension of ascending node: 200.0722°
argument of perigee: 48.5356°
revolutions per day: 13.75629581
mean anomaly at epoch: 61.2259°
orbit number at epoch: 44725

The dashed part of the orbit path shows where the satellite is in the earth's shadow,  

DLR